AV279 Weather Reports


time (UTC)temp
C
wind
direction
speed
KPH
gust
KPH
rain 1hr
cm
rain 24hr
cm
rain mn
cm
humidity
%
barometer
mb
20260504050520 10 248 1.6 3.2 0.00 0.53 0.00 91 1011.2
20260504045520 10 248 1.6 1.6 0.00 0.56 0.00 91 1011.1
20260504044520 10 248 1.6 1.6 0.00 0.56 0.00 91 1011.2
20260504043519 10 248 1.6 3.2 0.00 0.56 0.00 91 1011.1
20260504042519 10 270 1.6 3.2 0.00 0.56 0.00 91 1010.9
20260504041531 10 0.0 0.0 0.00 0.56 0.00 91 1010.8
20260504040520 10 248 1.6 1.6 0.00 0.56 0.00 91 1011.0
20260504035541 11 248 1.6 3.2 0.00 0.56 0.00 90 1011.0
20260504034520 11 0.0 1.6 0.00 0.56 0.00 90 1011.1
20260504033541 11 248 1.6 3.2 0.00 0.56 0.00 90 1011.1
20260504032520 11 0.0 1.6 0.00 0.56 0.00 90 1011.1
20260504031531 11 0.0 1.6 0.00 0.56 0.00 90 1011.1
20260504030520 11 0.0 1.6 0.00 0.56 0.00 90 1011.1
20260504025540 11 225 3.2 4.8 0.00 0.56 0.00 90 1011.0
20260504024530 11 225 1.6 3.2 0.00 0.56 0.00 90 1011.1
20260504023519 11 0.0 1.6 0.00 0.56 0.00 90 1011.1
20260504022519 11 0.0 1.6 0.00 0.56 0.00 89 1011.1
20260504021519 11 248 1.6 3.2 0.00 0.56 0.00 89 1010.9
20260504020519 11 270 1.6 3.2 0.00 0.56 0.00 89 1010.9
20260504015519 11 248 1.6 3.2 0.00 0.56 0.00 89 1011.0
20260504014520 11 248 1.6 4.8 0.00 0.56 0.00 89 1010.7
20260504013530 11 270 1.6 6.4 0.00 0.56 0.00 89 1010.8
20260504012530 11 293 1.6 3.2 0.00 0.56 0.00 89 1010.8
20260504011519 12 0.0 1.6 0.00 0.56 0.00 89 1010.9
20260504010530 12 248 1.6 3.2 0.00 0.56 0.00 89 1011.0
20260504005530 12 293 1.6 3.2 0.00 0.56 0.00 89 1011.1
20260504004530 12 270 1.6 3.2 0.00 0.56 0.00 89 1010.8
20260504003519 12 270 1.6 3.2 0.00 0.56 0.00 89 1010.7
20260504002541 12 248 1.6 3.2 0.00 0.56 0.00 89 1010.8
20260504001519 12 293 1.6 3.2 0.00 0.56 0.00 89 1010.8
20260504000540 12 248 1.6 3.2 0.00 0.56 0.00 89 1010.8
20260503235531 12 248 3.2 3.2 0.00 0.56 0.56 88 1010.8
20260503234541 12 248 1.6 3.2 0.00 0.56 0.56 88 1010.7
20260503233540 13 248 3.2 3.2 0.00 0.56 0.56 88 1010.7
20260503232520 13 225 1.6 3.2 0.00 0.56 0.56 88 1010.7
20260503231530 13 0.0 0.0 0.00 0.56 0.56 88 1010.6
20260503230540 13 225 1.6 3.2 0.00 0.56 0.56 88 1010.6
20260503225531 13 248 1.6 3.2 0.00 0.56 0.56 88 1010.7
20260503224519 13 270 1.6 3.2 0.00 0.56 0.56 87 1010.7
20260503223541 13 270 1.6 3.2 0.00 0.56 0.56 87 1010.7
20260503222530 13 203 1.6 3.2 0.00 0.56 0.56 87 1010.6
20260503221550 13 225 1.6 3.2 0.00 0.56 0.56 87 1010.5
20260503220530 13 248 3.2 4.8 0.00 0.56 0.56 87 1010.4
20260503215526 13 270 1.6 3.2 0.00 0.56 0.56 87 1010.4
20260503214541 14 248 1.6 4.8 0.00 0.56 0.56 87 1010.6
20260503213520 14 225 1.6 4.8 0.00 0.56 0.56 87 1010.6
20260503212540 14 225 3.2 3.2 0.00 0.56 0.56 87 1010.5
20260503211539 14 248 1.6 3.2 0.00 0.56 0.56 87 1010.4
20260503210552 15 0.0 0.0 0.00 0.56 0.56 87 1010.3
20260503205519 15 225 3.2 4.8 0.00 0.56 0.56 87 1010.4
20260503204530 15 248 3.2 4.8 0.00 0.56 0.56 87 1010.3
20260503203559 15 180 3.2 4.8 0.00 0.56 0.56 87 1010.4
20260503202519 15 248 3.2 4.8 0.00 0.56 0.56 87 1010.4
20260503201530 15 203 1.6 4.8 0.00 0.56 0.56 86 1010.5
20260503200519 15 225 1.6 4.8 0.00 0.56 0.56 86 1010.2
20260503195530 15 0.0 0.0 0.00 0.56 0.56 86 1010.2
20260503194519 15 0.0 0.0 0.00 0.56 0.56 86 1010.0
20260503193520 16 0.0 0.0 0.00 0.56 0.56 86 1009.9
20260503192519 16 225 1.6 3.2 0.00 0.56 0.56 85 1009.8
20260503191530 16 0.0 1.6 0.00 0.56 0.56 85 1009.8
20260503190530 16 0.0 0.0 0.00 0.56 0.56 85 1009.7
20260503185519 16 0.0 1.6 0.00 0.56 0.56 84 1009.6
20260503184727 16 180 1.6 3.2 0.00 0.56 0.56 84 1009.5
20260503183619 16 0.0 3.2 0.00 0.56 0.56 84 1009.4
20260503182619 16 180 3.2 6.4 0.00 0.56 0.56 83 1009.5
20260503181640 16 203 1.6 4.8 0.00 0.56 0.56 83 1009.4
20260503180619 16 0.0 1.6 0.00 0.56 0.56 83 1009.3
20260503175630 16 248 1.6 4.8 0.00 0.56 0.56 83 1009.3
20260503174619 16 180 1.6 1.6 0.00 0.56 0.56 82 1009.3
20260503173640 16 225 3.2 6.4 0.00 0.56 0.56 83 1009.2
20260503172640 16 0.0 1.6 0.00 0.56 0.56 83 1009.4
20260503171836 16 225 4.8 8.0 0.00 0.56 0.56 83 1009.4
20260503171319 16 0.0 1.6 0.00 0.56 0.56 83 1009.4
20260503170339 16 248 4.8 9.7 0.00 0.56 0.56 83 1009.3
20260503150839 15 113 3.2 6.4 0.05 0.56 0.56 91 1009.6
20260503130840 16 338 3.2 6.4 0.36 0.51 0.51 89 1009.4
20260503110819 20 225 4.8 8.0 0.00 0.15 0.15 72 1009.7
20260503080820 15 203 3.2 4.8 0.00 0.15 0.15 90 1009.8
20260503072819 14 180 1.6 4.8 0.00 0.15 0.15 90 1009.9
20260503071842 14 248 1.6 3.2 0.00 0.15 0.15 90 1009.9
20260503070900 14 248 1.6 3.2 0.03 0.15 0.15 90 1009.9